Location: Newark
(45.9456°N, 15.4064°E)
Time: 07:43:32
(UTC+00:00)

SR - Pass Details

Date: 03 February 2020
Orbit: 575 x 881 km, 66.7° (Epoch: 18 February)

Event Time Altitude Azimuth Distance (km) Brightness Sun altitude
Rises 03:45:07 0° 326° (NW) 3,384 - -27.0°
Reaches altitude 10° 03:47:39 10° 326° (NW) 2,407 - -26.5°
Exits shadow 03:52:47 76° 312° (NW) 794 ? -25.6°
Maximum altitude 03:53:12 86° 239° (WSW) 771 ? -25.5°
Drops below altitude 10° 03:58:14 10° 151° (SSE) 2,190 ? -24.7°
Sets 04:00:28 0° 150° (SSE) 3,057 ? -24.3°
